Welcome to the New NWS' Forecast!
Most changes are behind the scenes, but click here for differences you might notice.

Regional Weather Roundup (RWR)

Issued by National Weather Service (NWS)

                            
050 
ASUS45 KBOU 201210
RWRCO 

WEATHER ROUNDUP FOR COLORADO
NATIONAL WEATHER SERVICE DENVER/BOULDER CO
600 AM MDT MON AUG 20 2018

NOTE: "FAIR" INDICATES FEW OR NO CLOUDS BELOW 12000 FEET WITH NO
SIGNIFICANT WEATHER AND/OR OBSTRUCTIONS TO VISIBILITY.

COZ001>005-013-030-031-201300-
...NORTHWEST COLORADO...
  
CITY           SKY/WX    TMP DP  RH WIND       PRES   REMARKS
CRAIG          FAIR      43  40  89 CALM      30.28F                  
HAYDEN         FAIR      45  39  79 E13       30.32F                  
MEEKER         FAIR      45  39  79 NE5       30.29S                  
RANGELY        FAIR      53  42  66 CALM      30.21S                  
RABBIT EARS PA FAIR      41  36  81 S3        30.52F                  
STEAMBOAT SPGS FAIR      40  39  94 CALM      30.34S                  
WALDEN         FAIR      30  28  93 SE7       30.43S WCI  23          
$$

COZ006>008-011-201300-
...WEST CENTRAL VALLEYS...
  
CITY           SKY/WX    TMP DP  RH WIND       PRES   REMARKS
GRAND JUNCTION FAIR      59  41  51 VRB3      30.17R                  
MONTROSE       FAIR      54  36  50 SE10      30.26S                  
EAGLE          FAIR      44  39  82 CALM        N/A                   
RIFLE          FAIR      52  45  77 CALM      30.26R                  
DELTA          FAIR      56  37  48 NE7       30.23S                  
NUCLA          FAIR      55  30  38 SE3         N/A                   
$$

COZ017>023-064>068-201300-
...SOUTHWEST COLORADO...
  
CITY           SKY/WX    TMP DP  RH WIND       PRES   REMARKS
DURANGO        FAIR      45  27  49 N3        30.28R                  
CORTEZ         FAIR      45  33  63 NE6       30.22R                  
PAGOSA SPRINGS FAIR      46  26  45 N5        30.36R                  
TELLURIDE      FAIR      46  28  49 SE6       30.47S                  
WOLF CREEK PAS FAIR      43  19  39 CALM      30.67R                  
$$

COZ009-010-012-014-032>034-037-058>063-201300-
...CENTRAL COLORADO...
  
CITY           SKY/WX    TMP DP  RH WIND       PRES   REMARKS
ASPEN          FAIR      43  37  79 S6        30.38R                  
BUENA VISTA    CLOUDY   N/A N/A N/A W5        30.42R                  
COPPER MTN     FAIR      45  30  57 SW7       30.62R                  
BERTHOUD PASS  FAIR      36  23  60 NW16      30.62S                  
COTTONWOOD PAS CLOUDY    52  45  76 CALM      30.50R                  
GUNNISON       FAIR      40  34  79 CALM      30.41R                  
GRANBY         FAIR      33  33  96 CALM      30.45R                  
KREMMLING      FAIR      36  36 100 CALM      30.42R                  
LEADVILLE      FAIR      34  33  96 CALM      30.50R                  
MONARCH PASS   FAIR      39  34  81 SW17      30.70F                  
SALIDA         FAIR      51  44  75 SW3       30.46S                  
SUNLIGHT       FAIR      45  32  61 SW3       30.56F                  
WILKERSON PASS SNOW      39  37  93 W5        30.58S VSB 1/4          
$$

COZ069>075-201300-
...SAN LUIS VALLEY/SANGRE DE CRISTO MOUNTAINS...
  
CITY           SKY/WX    TMP DP  RH WIND       PRES   REMARKS
ALAMOSA        CLOUDY    48  43  82 CALM      30.36S                  
DEL NORTE      FAIR      47  29  48 W14       30.40S                  
LA VETA PASS   NOT AVBL                                               
SAGUACHE       FAIR      43  36  75 NW6       30.40S                  
$$

COZ035-036-038>040-201300-
...NORTHERN COLORADO FRONT RANGE...
  
CITY           SKY/WX    TMP DP  RH WIND       PRES   REMARKS
DENVER INTL AP FAIR      49  45  86 E3        30.29S FOG              
AURORA         PTCLDY    49  47  93 CALM      30.31S                  
FRONT RANGE AP NOT AVBL                                               
ERIE MUNI ARPT FAIR      49  47  94 CALM      30.35S FOG              
BOULDER MUN AP FAIR      52  50  93 CALM      30.30R                  
CENTENNIAL     FAIR      46  44  93 CALM      30.31S                  
BROOMFIELD     FAIR      54  48  82 CALM      30.31S                  
FORT COLLINS   CLOUDY    51  47  86 E3        30.30S FOG              
LONGMONT       NOT AVBL                                               
$$

COZ041-046-047-076>085-087-088-201300-
...PIKES PEAK/PALMER DIVIDE AND SOUTHERN FOOTHILLS...
  
CITY           SKY/WX    TMP DP  RH WIND       PRES   REMARKS
COLO. SPRINGS  FAIR      52  47  83 CALM      30.33S                  
A. F. ACADEMY  FAIR      45  43  94 N5        30.33S                  
SCHRIEVER AFB  NOT AVBL                                               
CHEYENNE MTN   FAIR      51  45  79 CALM      30.30S                  
ELLICOTT         N/A    N/A N/A N/A NE6       30.31S                  
FALCON         FAIR      46  44  90 W6        30.36S                  
FORT CARSON    FAIR      53  46  79 CALM      30.31R                  
LIMON          FAIR      44  42  93 NW10      30.29S                  
MONUMENT HILL  FAIR      41  41 100 SW5       30.37S                  
CANON CITY     NOT AVBL                                               
WALSENBURG     NOT AVBL                                               
TRINIDAD       FAIR      53  49  86 S5        30.32F                  
$$

COZ042>045-048>051-090-091-201300-
...NORTHEAST COLORADO...
  
CITY           SKY/WX    TMP DP  RH WIND       PRES   REMARKS
GREELEY ARPT   FAIR      47  45  93 N6        30.29F FOG              
AKRON          CLOUDY    45  43  93 NW12      30.26S FOG              
BURLINGTON     MOCLDY    49  46  90 NW10      30.22R                  
WRAY           FAIR      48  45  87 NW8       30.21R                  
YUMA           FAIR      45  43  93 W9        30.23R                  
STERLING       FAIR      45  43  93 NW8       30.24S                  
HOLYOKE        FAIR      52  45  76 NW10      30.21R                  
FORT MORGAN    FAIR      48  43  85 NW9       30.28S                  
$$

COZ086-089-092>099-201300-
...SOUTHEAST COLORADO...
  
CITY           SKY/WX    TMP DP  RH WIND       PRES   REMARKS
PUEBLO         FAIR      57  50  77 CALM      30.27S HAZE             
LA JUNTA       FAIR      54  49  83 W6        30.26S                  
LAMAR          FAIR      53  45  74 W9        30.21R                  
SPRINGFIELD      N/A     51  46  83 NW12      30.23S                  
$$